Cairo, Egypt

9:23 AM EET on December 14, 2017 (GMT +0200)
Cairo International Airport

Weather History for HECA - January, 2013

Change the Weather History Date:

Wednesday, January 23, 2013

  Actual Average Record
Temperature  
Mean Temperature 60 °F -  
Max Temperature 67 °F 66 °F 76 °F (2015)
Min Temperature 54 °F 49 °F 46 °F (2000)
Degree Days  
Heating Degree Days 4    
Growing Degree Days 10 (Base 50)    
Moisture  
Dew Point 48 °F    
Average Humidity 63    
Maximum Humidity 82    
Minimum Humidity 32    
Precipitation  
Precipitation 0.00 in 0.01 in - ()
Sea Level Pressure  
Sea Level Pressure 30.11 in    
Wind  
Wind Speed 6 mph ()    
Max Wind Speed 9 mph    
Max Gust Speed -    
Visibility 4.9 miles    
Events      
Averages and records for this station are not official NWS values.
T = Trace of Precipitation, MM = Missing Value Source: Averaged Metar Reports

Daily Weather History Graph

Daily Weather History Graph

Search for Another Location

Airport or City:

Trip Planner

Search our weather history database for the weather conditions in past years. The results will help you decide how hot, cold, wet, or windy it might be!

Date:

Astronomy

Jan. 23, 2013 Rise Set
Actual Time 6:49 AM EET 5:23 PM EET
Civil Twilight 6:23 AM EET 5:49 PM EET
Nautical Twilight 5:54 AM EET 6:18 PM EET
Astronomical Twilight 5:26 AM EET 6:46 PM EET
Moon 2:20 PM EET (1/23) 3:41 AM EET (1/23)
Length of Visible Light 11h 25m
Length of Day
10h 34m
Waxing Gibbous, 87% of the Moon is Illuminated
Jan 23
Waxing Gibbous
Jan 27
Full
Feb 3
Last Quarter
Feb 10
New
Feb 17
First Quarter

Hourly Weather History & Observations

Time (EET) Temp. Dew Point Humidity Pressure Visibility Wind Dir Wind Speed Gust Speed Precip Events Conditions
12:00 AM 57.2 °F 48.2 °F 72% 30.09 in - East 4.6 mph - N/A   Clear
12:30 AM 57.2 °F 48.2 °F 72% 30.09 in - East 4.6 mph - N/A   Clear
1:00 AM 57.2 °F 48.2 °F 72% 30.09 in - East 5.8 mph - N/A   Clear
1:30 AM 57.2 °F 48.2 °F 72% 30.09 in - East 5.8 mph - N/A   Clear
2:00 AM 55 °F 48 °F 69% 30.12 in 6 mi East 4.6 mph - -  
2:00 AM 55.4 °F 48.2 °F 77% 30.09 in - East 4.6 mph - N/A   Clear
2:30 AM 55.4 °F 48.2 °F 77% 30.09 in - East 4.6 mph - N/A   Clear
3:00 AM 55.4 °F 48.2 °F 77% 30.09 in - East 5.8 mph - N/A   Clear
3:30 AM 55.4 °F 48.2 °F 77% 30.09 in - East 5.8 mph - N/A   Clear
4:00 AM 55.4 °F 50.0 °F 82% 30.09 in - East 5.8 mph - N/A   Clear
4:30 AM 55.4 °F 50.0 °F 82% 30.09 in - East 5.8 mph - N/A   Clear
5:00 AM 55.4 °F 50.0 °F 82% 30.09 in 3.7 mi East 4.6 mph - N/A   Unknown
5:30 AM 55.4 °F 50.0 °F 82% 30.09 in 3.7 mi East 4.6 mph - N/A   Unknown
6:00 AM 55.4 °F 50.0 °F 82% 30.09 in 3.7 mi East 8.1 mph - N/A   Unknown
6:30 AM 55.4 °F 50.0 °F 82% 30.09 in 3.7 mi East 8.1 mph - N/A   Unknown
7:00 AM 55.4 °F 50.0 °F 82% 30.12 in 3.7 mi ESE 8.1 mph - N/A   Unknown
7:30 AM 55.4 °F 50.0 °F 82% 30.12 in 3.7 mi ESE 8.1 mph - N/A   Unknown
8:00 AM 57 °F 50 °F 71% 30.14 in 4 mi ESE 8.1 mph - -   Mist
8:00 AM 57.2 °F 50.0 °F 77% 30.12 in 3.7 mi ESE 8.1 mph - N/A   Unknown
8:30 AM 60.8 °F 51.8 °F 72% 30.15 in 3.7 mi ESE 8.1 mph - N/A   Unknown
9:00 AM 62.6 °F 50.0 °F 63% 30.15 in - East 3.5 mph - N/A   Clear
9:30 AM 62.6 °F 48.2 °F 59% 30.15 in - NE 3.5 mph - N/A   Clear
10:00 AM 62.6 °F 48.2 °F 59% 30.15 in - NNE 4.6 mph - N/A   Clear
11:00 AM 64.4 °F 50.0 °F 59% 30.15 in 6.2 mi NNE 6.9 mph - N/A   Partly Cloudy
11:30 AM 64.4 °F 50.0 °F 59% 30.12 in 6.2 mi North 6.9 mph - N/A   Partly Cloudy
12:00 PM 64.4 °F 46.4 °F 52% 30.12 in 6.2 mi North 8.1 mph - N/A   Partly Cloudy
12:30 PM 66.2 °F 48.2 °F 52% 30.12 in 6.2 mi NNE 6.9 mph - N/A   Partly Cloudy
1:00 PM 66.2 °F 48.2 °F 52% 30.12 in 6.2 mi NNW 9.2 mph - N/A   Partly Cloudy
1:30 PM 66.2 °F 46.4 °F 49% 30.09 in - NNW 8.1 mph - N/A   Clear
2:00 PM 67 °F 44 °F 32% 30.12 in 6 mi NNW 9.2 mph - -  
2:00 PM 66.2 °F 44.6 °F 46% 30.12 in - NNW 9.2 mph - N/A   Clear
2:30 PM 68.0 °F 44.6 °F 43% 30.09 in - North 9.2 mph - N/A   Clear
3:00 PM 68.0 °F 46.4 °F 46% 30.12 in - North 9.2 mph - N/A   Clear
3:30 PM 66.2 °F 46.4 °F 49% 30.12 in - North 9.2 mph - N/A   Clear
4:00 PM 66.2 °F 46.4 °F 49% 30.12 in - North 6.9 mph - N/A   Clear
4:30 PM 66.2 °F 44.6 °F 46% 30.12 in - North 8.1 mph - N/A   Clear
5:00 PM 66.2 °F 44.6 °F 46% 30.12 in - NNE 6.9 mph - N/A   Clear
5:30 PM 66.2 °F 44.6 °F 46% 30.12 in - NNE 9.2 mph - N/A   Clear
6:00 PM 64.4 °F 44.6 °F 49% 30.12 in - NNE 8.1 mph - N/A   Clear
6:30 PM 64.4 °F 44.6 °F 49% 30.12 in - NNE 8.1 mph - N/A   Clear
7:00 PM 64.4 °F 46.4 °F 52% 30.12 in - NNE 6.9 mph - N/A   Clear
7:30 PM 62.6 °F 44.6 °F 52% 30.12 in - NNE 5.8 mph - N/A   Clear
8:00 PM 63 °F 46 °F 44% 30.15 in 6 mi NNE 4.6 mph - -  
8:00 PM 62.6 °F 46.4 °F 55% 30.12 in - NNE 4.6 mph - N/A   Clear
8:30 PM 60.8 °F 46.4 °F 59% 30.12 in - NE 5.8 mph - N/A   Clear
9:00 PM 59.0 °F 46.4 °F 63% 30.12 in - ENE 5.8 mph - N/A   Clear
9:30 PM 59.0 °F 46.4 °F 63% 30.12 in - ENE 5.8 mph - N/A   Clear
10:00 PM 59.0 °F 46.4 °F 63% 30.12 in - East 5.8 mph - N/A   Clear
10:30 PM 57.2 °F 46.4 °F 67% 30.12 in - East 5.8 mph - N/A   Clear
11:00 PM 57.2 °F 46.4 °F 67% 30.12 in - East 6.9 mph - N/A   Clear
11:30 PM 57.2 °F 46.4 °F 67% 30.12 in - NE 4.6 mph - N/A   Clear